ATLAS AGENA R/B, 27785

Orbit data source: Space-Track

ATLAS AGENA R/B, 27785 is space debris in GEO originally from a launch on Tue, 06 Aug 1968 UTC launched from the Air Force Eastern Test Range (AFETR). Debris objects in space refer to the collection of defunct objects orbiting the Earth. Examples of debris include non-operational satellites, rocket bodies, and fragments generated from explosions, collisions, or faulty payload assembly.

Not visible in the next 10 days
Identifier
27785, 1968-063B
Orbit
GEO
Country
Flag of USUS
Related business
Manufacturer
LMSC
Mission
Spacecraft
Bus & Motor
AGENA D, Unknown motor
Mass
~555 kg wet, 555 kg dry
Launch date (UTC)
1968-08-06 (57 years ago)
Launch vehicle
Unknown
Launch site
Air Force Eastern Test Range (AFETR)
Object type
Payload
Rocket body
Debris
Shape & HBR
Cyl, 3.1 m
Radar Cross Section
8.306 m²

Expand to show TLE details & history
Last TLE update: 1 day ago

TLE from 1 day ago
0 ATLAS AGENA R/B
1 27785U 68063B   25242.32977006 -.00000001  00000-0  00000-0 0  9993
2 27785   5.1276 270.6523 1026664 255.9568  92.2778  1.01772222 23422
Epoch: 2025-08-30T07:54Z
TLE epoch observation values (Epoch: 2025-08-30T07:54:52.133Z)
Latitude
0.00001°
Longitude
173.06409°
Altitude
35,984.802 km
Speed
3.045 km/s
True Right ascension
18h 02m 11s
True Declination
0° 00' 00"
Sunlit
Object was in daylight at epoch
Visualization orbit readout
Latitude
Unknown
Longitude
Unknown
Altitude
Unknown
Speed
Unknown
Apparent Right ascension
Unknown
Apparent Declination
Unknown
Sunlit
N/A
Visualization observer readout
Local Sidereal Time
05:28:02
Azimuth
Unknown
Elevation
Unknown
Doppler factor
Unknown
Orbital elements
Apogee altitude
39,658.589 km
Perigee altitude
31,085.869 km
Semi-major axis
41,750.366 km
Eccentricity
0.10267
Inclination
5.1276°
RAAN
270.6523°
Arg. of periapsis
255.9568°
True anomaly
103.89353°
Mean anomaly
92.2778°
Eccentric anomaly
98.10145°
Mean motion
0.25442 °/min
Orbital period
1,414.98 mins
BSTAR
0
Loading maneuver chart data...
Computing Atmospheric mass density...
Loading historical data...
Loading historical data...
Loading historical data...
Loading historical data...
Loading historical data...
Loading historical data...
Loading historical data...
Other satellites on launch #63 in the year 1968 (1968-08-06 UTC)

Documentation

Showing up to 5 results
|